Regional Weather Roundup
Issued by NWS Charleston, SC

Current Version | Previous Version | Graphics & Text | Print | Product List | Glossary On
Versions: 1 2 3 4 5 6 7 8 9 10 11 12 13 14 15 16 17 18 19 20 21 22 23 24 25 26 27 28 29 30 31 32 33 34 35 36 37 38 39 40 41 42 43 44 45 46 47 48 49 50
954 ASUS42 KCHS 292227 RWRCHS REGIONAL WEATHER ROUNDUP NATIONAL WEATHER SERVICE CHARLESTON SC 600 PM EDT SAT APR 29 2017 NOTE: "FAIR" INDICATES FEW OR NO CLOUDS BELOW 12,000 FEET WITH NO SIGNIFICANT WEATHER AND/OR OBSTRUCTIONS TO VISIBILITY. NOT ALL STATIONS ARE QUALITY CONTROLLED. USE DATA WITH CAUTION... ESPECIALLY DEWPOINT OBSERVATIONS. SCZ027-030-031-034>040-042>050-292300- ...SOUTHEAST SOUTH CAROLINA... CITY SKY/WX TMP DP RH WIND PRES REMARKS N CHARLESTON PTSUNNY 80 67 64 S15 30.18S WATERFRONT PRK N/A 78 72 81 S13 30.16F JOHNS ISLAND MOCLDY 79 73 83 S9 30.19S PINOPOLIS N/A 82 72 69 VRB3 30.09S MONCKS CORNER FAIR 81 66 61 S12G17 30.17R SUMMERVILLE FAIR 81 70 69 S8 30.18S BEAUFORT MCAS MOSUNNY 81 72 74 S10G20 30.17F BEAUFORT ARPT CLOUDY 79 70 73 S8G16 30.17S HILTON HEAD IS NOT AVBL WALTERBORO MOCLDY 81 68 65 S13 30.17S ALLENDALE FAIR 84 66 54 SE14 30.12S ...SOUTHERN MIDLANDS AND PEE DEE... CITY SKY/WX TMP DP RH WIND PRES REMARKS GEORGETOWN FAIR 79 70 73 S12 30.20R KINGSTREE FAIR 82 68 61 S8 30.16R ORANGEBURG MOSUNNY 85 68 56 S12 30.14S BARNWELL FAIR 88 70 55 SE13 30.12S HX 92 AIKEN FAIR 84 64 51 SE7 30.16S MANNING FAIR 82 68 61 S13G20 30.15S COLUMBIA MOSUNNY 89 65 44 S10 30.12S HX 91 SUMTER CLOUDY 85 67 54 S13 30.12S FLORENCE MOSUNNY 86 65 49 SW10 30.14S MYRTLE BEACH MOSUNNY 81 72 74 S14 30.18F N MYRTLE BEACH SUNNY 78 72 81 S14 30.18F $$ GAZ063-065-086>088-099>101-113>116-118-119-134>141-150-292300- ...SOUTHEAST GEORGIA... CITY SKY/WX TMP DP RH WIND PRES REMARKS SAVANNAH ARPT CLOUDY 82 67 60 SE16 30.15F HUNTER AAF MOSUNNY 79 73 83 SE12 30.13F FORT STEWART CLOUDY 82 68 62 SE8G18 30.12S STATESBORO CLOUDY 86 66 51 SE7 30.12S SYLVANIA PTCLDY N/A N/A N/A SE8 30.14S CLAXTON FAIR 84 71 63 E9 30.12S ...CSRA...CENTRAL AND FAR SOUTHEAST GEORGIA... CITY SKY/WX TMP DP RH WIND PRES REMARKS THOMSON CLOUDY 85 68 56 SW9 30.15S AUGUSTA-BUSH MOSUNNY 88 67 49 SE8 30.09F HX 91 AUGUSTA-DANIEL CLOUDY 88 63 43 SE12 30.11F SWAINSBORO MOCLDY 88 63 42 SE8 30.11S VIDALIA PTSUNNY 88 68 51 SE12 30.10S HX 91 EASTMAN MOCLDY 89 48 24 S6 30.10F HAZLEHURST FAIR 89 64 43 S5 30.08S HX 90 ALMA CLOUDY 90 65 43 SE7 30.09S HX 92 WAYCROSS CLOUDY 89 75 62 SE12 30.09S HX 99 JESUP FAIR 82 68 61 SE9 30.12F BAXLEY FAIR 88 73 62 SE13G18 30.09S HX 96 BRUNSWICK MOSUNNY 81 72 74 SE14G21 30.15S SAINT SIMONS MOSUNNY 79 70 74 SE14 30.15F $$ SCZ027-028-034-036>038-045-046-048>050-GAZ119-141-292300- ...LAKE AND SUPPLEMENTAL COASTAL OBSERVATIONS... STATION/POSITION TIME TEMP WIND PRES WAVE SWELL AIR SEA DIR/SP/G HT/PER HT/PER/DIR (UTC) (F) (DEG/KT/KT) (MB) (FT/S) (FT/S/D) WINYAH BAY 2130 80 200/ 12 1022.0S LAKE MURRAY 2220 83 150/ 4/ 5 1019.0F ACE BASIN NERRS 2130 80 160/ 2 1022.0S FORT PULASKI 2200 78 77 170/ 6/ 10 1021.9 SAPELO ISLAND 2130 82 140/ 10 1021.0S $$ ANZ835-935-AMZ111-154-330-350-352-354-370-450-454-472-292300- ...C-MAN AND BUOY OBSERVATIONS... STATION/POSITION TIME TEMP WIND PRES WAVE SWELL AIR SEA DIR/SP/G HT/PER HT/PER/DIR (UTC) (F) (DEG/KT/KT) (MB) (FT/S) (FT/S/D) BUOY 41004 2200 77 76 180/ 8/ 10 1022.4 BUOY 41008 2150 76 76 130/ 10/ 10 1021.3F 3/ 5 3/130/ 5 FOLLY BEACH CMAN 2200 77 170/ 9/ 11 1023.0S CAPERS NEARSHORE 2208 78 76 190/ 10/ 14 1022.2F FRIPP NEARSHORE 2208 77 77 150/ 8/ 10 1021.7F STATION/POSITION TIME TEMP WIND PRES WAVE SWELL AIR SEA DIR/SP/G HT/PER HT/PER/DIR (UTC) (F) (DEG/KT/KT) (MB) (FT/S) (FT/S/D) 5E ST. MARYS GA 2200 76 N/A 3/ 6 FRYING PAN BUOY 2210 76 75 200/ 8/ 10 1023.0 BUOY 41025 2150 77 76 210/ 16/ 19 1022.4F 4/ 5 2/130/ 7 CAPE LOOKOUT NC 2200 76 200/ 10/ 13 1022.1F BUOY 41002 2150 75 76 150/ 14/ 16 1024.4S 3/ 8 2/ 60/ 8 BUOY 41010 2210 78 78 120/ 14/ 17 1021.8 ST AUGUSTINE FL 2200 76 80 130/ 12/ 13 1021.7R $$

USA.gov is the U.S. government's official web portal to all federal, state and local government web resources and services.